Home > Weather > Wals-Siezenheim > Past weeks

Flag for Austria Weather for the Past 2 Weeks in Wals-Siezenheim, Salzburg, Austria

Now
66 °F

Passing clouds.


Feels Like: 66 °F
Forecast: 42 / 54 °F
Wind: 6 mph from North

Location: Salzburg-Flughafen

Current Time: Apr 30, 2016 at 2:26:17 PM

Latest Report: Apr 30, 2016 at 1:50 PM


Visibility: N/A

Pressure: 29.95 "Hg

Humidity: 28%

Dew Point: 32 °F

Location of Wals-SiezenheimLocation

Historic Weather in Wals-Siezenheim — Graph

°F

Wals-Siezenheim Temperature Yesterday

Maximum temperature yesterday: 61 °F (at 3:20 PM)
Minimum temperature yesterday: 30 °F (at 2:20 AM)
Average temperature yesterday: 47 °F

High & Low Weather Summary for the Past Weeks

 TemperatureHumidityPressure
High68 °F (Apr 21, 4:50 PM)100% (Apr 17, 12:20 AM)30.36 "Hg (Apr 17, 12:20 AM)
Low30 °F (Apr 28, 3:50 AM)28% (Apr 21, 4:20 PM)29.59 "Hg (Apr 17, 3:50 AM)
Average46 °F74%29.95 "Hg
* Reported Apr 15 12:20 PM — Apr 30 12:50 PM, Wals-Siezenheim, Weather by CustomWeather, © 2016

Note: Actual official high and low records may vary slightly from our data, if they occured in-between our weather recording intervals... More about our weather records

Advertising

Wals-Siezenheim Weather History for the Previous 24 Hours

Scroll right to see more
 ConditionsComfort  
Time TempWeatherWind HumidityBarometerVisibility
12:50 PM
Sat, Apr 30
64 °FPassing clouds.8 mph40%29.98 "HgN/A
12:20 PM61 °FPassing clouds.6 mph45%29.98 "HgN/A
11:50 AM61 °FPassing clouds.5 mph42%29.98 "HgN/A
11:20 AM59 °FPassing clouds.2 mph39%30.01 "HgN/A
10:50 AM57 °FSunny.2 mph44%30.01 "Hg10 mi
10:20 AM55 °FSunny.2 mph47%30.04 "Hg10 mi
9:50 AM55 °FPassing clouds.3 mph47%30.04 "HgN/A
8:50 AM50 °FSunny.9 mph54%30.04 "Hg10 mi
8:20 AM48 °FSunny.8 mph62%30.04 "Hg10 mi
7:50 AM45 °FSunny.9 mph66%30.04 "Hg10 mi
7:20 AM43 °FSunny.10 mph66%30.04 "Hg10 mi
6:50 AM41 °FClear.10 mph70%30.04 "Hg10 mi
6:20 AM37 °FClear.9 mph81%30.04 "Hg10 mi
5:50 AM37 °FPassing clouds.8 mph75%30.04 "HgN/A
5:20 AM37 °FChilly.8 mph75%30.04 "HgN/A
4:50 AM37 °FPassing clouds.9 mph75%30.04 "HgN/A
4:20 AM37 °FChilly.7 mph75%30.04 "HgN/A
3:50 AM39 °FChilly.8 mph75%30.04 "HgN/A
3:20 AM39 °FChilly.3 mph75%30.04 "HgN/A
2:50 AM41 °FPassing clouds.6 mph70%30.04 "HgN/A
1:50 AM37 °FChilly.3 mph81%30.04 "HgN/A
1:20 AM41 °FQuite cool.3 mph76%30.04 "HgN/A
12:50 AM41 °FQuite cool.5 mph76%30.04 "HgN/A
12:20 AM41 °FPassing clouds.2 mph76%30.04 "HgN/A
11:50 PM
Fri, Apr 29
41 °FQuite cool.3 mph76%30.04 "HgN/A
11:20 PM43 °FQuite cool.5 mph71%30.04 "HgN/A
10:50 PM45 °FClear.5 mph66%30.04 "Hg10 mi
10:20 PM45 °FClear.3 mph66%30.04 "Hg10 mi
9:50 PM43 °FClear.6 mph76%30.04 "Hg10 mi
9:20 PM45 °FClear.3 mph71%30.04 "Hg10 mi
8:50 PM52 °FPassing clouds.5 mph50%30.04 "HgN/A
8:20 PM55 °FPassing clouds.6 mph41%30.01 "HgN/A
7:50 PM57 °FPassing clouds.7 mph39%30.01 "HgN/A
7:20 PM59 °FPassing clouds.8 mph34%30.01 "HgN/A
6:50 PM59 °FPassing clouds.9 mph34%30.01 "HgN/A
6:20 PM59 °FPassing clouds.9 mph34%30.01 "HgN/A
5:50 PM61 °FPassing clouds.9 mph31%30.01 "HgN/A
5:20 PM61 °FPassing clouds.8 mph29%30.01 "HgN/A
4:50 PM61 °FPassing clouds.3 mph29%30.01 "HgN/A
4:20 PM61 °FPassing clouds.7 mph29%30.01 "HgN/A
3:50 PM61 °FPassing clouds.7 mph34%30.04 "HgN/A
3:20 PM61 °FPassing clouds.7 mph31%30.04 "HgN/A
2:50 PM59 °FPassing clouds.6 mph36%30.04 "HgN/A
2:20 PM59 °FPassing clouds.6 mph34%30.04 "HgN/A
Weather by CustomWeather, © 2016

See weather overviewHow to use our weather pages